Probability
0 3 6 6 0 0 0 0 10 13 10 13 13 13 10 13 13 10 10 3 6 10 10 10 6 6 6 6 6 6 6 3 3 3 3 0 0 0 0 0 0 0 0
3 6 10 6 3 0 0 3 10 10 10 13 10 10 13 13 13 13 10 13 13 13 16 13 6 6 6 6 6 6 3 3 3 3 3 0 0 3 0 0 0 0 0
3 10 13 3 3 3 3 10 10 16 10 10 16 19 16 13 10 10 13 13 19 19 16 13 6 10 10 6 3 3 3 3 3 3 3 3 3 3 3 0 0 0 0
6 10 10 3 0 3 6 10 13 19 23 16 19 23 19 19 13 13 10 10 13 23 19 10 13 13 13 10 6 6 3 3 3 3 3 3 3 3 3 0 0 0 0
13 13 13 3 0 16 13 10 16 23 23 26 26 19 19 16 13 10 10 13 6 16 19 10 13 13 16 16 13 3 3 3 3 3 3 0 0 0 0 0 0 0 0
16 13 10 6 6 13 13 19 16 19 19 26 26 23 23 23 16 10 10 10 10 13 19 19 19 13 16 19 10 6 3 3 3 0 0 0 0 0 0 0 0 0 0
10 10 6 6 3 23 23 19 19 23 19 26 23 29 26 26 16 10 10 10 10 13 16 23 23 23 23 19 13 13 13 3 3 3 3 0 0 0 0 0 0 0 0
10 6 6 6 6 19 23 19 16 23 23 26 26 26 29 29 16 13 16 13 13 13 19 23 23 23 16 16 10 3 6 6 6 6 0 0 0 0 0 0 0 0 0
13 6 6 10 6 19 16 23 26 29 29 29 29 29 29 23 26 19 16 13 16 16 19 19 19 19 16 13 10 6 3 6 0 0 0 3 0 0 0 0 0 0 3
16 16 13 13 10 16 16 23 29 29 26 29 29 32 26 23 26 26 26 26 19 23 19 23 19 16 13 10 10 6 3 0 0 0 0 0 0 0 0 0 0 0 0
19 16 13 13 10 10 23 23 29 26 29 26 29 39 29 26 26 29 26 26 23 23 19 19 19 13 13 10 10 6 3 6 3 3 0 0 0 0 0 0 0 0 0
23 16 13 13 6 10 19 23 23 29 29 26 35 39 32 26 26 26 26 26 19 23 19 13 16 19 16 10 6 6 6 10 10 3 3 0 0 0 0 3 3 0 0
32 23 23 19 16 16 19 19 29 32 35 35 42 35 35 29 29 29 23 19 19 19 13 13 16 19 16 6 10 10 3 3 6 6 6 0 0 3 3 3 3 3 3
32 26 26 26 19 16 19 26 32 35 42 42 39 35 35 32 29 32 23 19 19 13 13 16 19 19 13 6 6 6 6 3 3 3 3 3 3 3 3 3 3 3 3
29 29 29 23 19 13 19 29 32 35 39 42 39 35 32 32 26 26 23 16 13 10 13 13 16 16 10 6 3 3 3 3 3 3 3 3 3 3 3 3 3 3 3
32 29 29 26 19 13 23 26 39 35 35 39 42 32 29 26 29 29 23 13 10 13 13 13 10 10 10 3 3 3 3 3 3 3 6 6 3 3 0 0 0 3 3
26 23 26 26 19 13 13 26 32 29 26 26 32 29 29 29 29 29 23 19 10 10 6 6 3 10 10 6 3 3 3 3 3 6 6 6 6 3 6 0 0 0 0
26 23 26 26 13 13 16 16 32 26 23 26 32 29 26 29 26 29 26 10 10 3 3 3 3 3 10 0 0 0 0 3 6 6 6 6 6 6 6 6 6 3 3
26 23 26 26 23 13 16 16 26 26 29 29 29 29 32 29 29 29 29 16 6 3 3 3 3 3 3 0 0 0 0 0 3 3 6 6 6 6 3 6 6 6 3
26 23 19 16 13 13 16 19 29 26 26 29 29 35 35 29 26 26 23 13 10 10 10 3 3 3 3 0 0 0 0 0 0 3 3 3 3 6 3 6 6 6 6
23 19 19 16 10 10 13 19 19 23 23 26 29 29 32 29 29 26 23 16 13 10 10 10 10 6 6 0 0 0 0 3 3 3 3 3 3 0 0 0 6 6 6
16 16 13 6 13 16 13 16 16 23 23 35 29 29 29 29 26 19 19 16 16 13 13 10 10 6 6 3 0 0 0 3 3 3 3 3 0 0 0 0 0 0 0
10 13 10 10 13 16 16 19 16 19 23 32 32 29 29 29 23 26 26 16 13 16 13 13 10 10 10 6 0 0 0 0 3 3 0 0 0 0 0 0 0 0 0
10 10 13 6 10 10 13 16 19 19 26 29 26 26 29 26 26 26 23 19 13 13 16 16 13 10 6 3 3 3 0 0 0 3 0 0 0 0 0 0 0 0 0
13 16 13 10 6 6 3 16 16 26 26 26 26 26 19 19 19 19 19 23 19 16 13 10 13 13 13 6 0 0 0 0 0 0 0 0 0 0 0 0 0 0 0
10 13 13 13 6 6 6 10 13 19 19 19 23 19 19 19 19 19 13 0 3 3 3 3 3 6 0 0 0 0 0 0 0 0 0 0 0 0 0 0 0 0 0
Height
5900 5898 5897 5896 5894 5893 5892 5892 5891 5891 5890 5890 5890 5889 5889 5889 5889 5889 5889 5889 5889 5889 5889 5889 5889 5890 5890 5890 5890 5890 5889 5889 5889 5889 5888 5888 5888 5887 5887 5886 5886 5885 5884
5902 5900 5899 5898 5896 5895 5894 5893 5893 5892 5892 5891 5891 5891 5891 5891 5891 5890 5890 5890 5890 5890 5890 5890 5890 5890 5890 5890 5890 5889 5889 5889 5889 5888 5888 5887 5887 5886 5886 5885 5884 5883 5882
5903 5902 5900 5899 5898 5897 5896 5895 5894 5893 5893 5893 5892 5892 5892 5892 5892 5891 5891 5890 5890 5891 5891 5891 5891 5890 5890 5890 5890 5889 5889 5888 5888 5887 5887 5886 5886 5885 5885 5883 5883 5882 5881
5905 5903 5901 5900 5900 5899 5898 5897 5896 5895 5894 5894 5893 5893 5893 5893 5892 5892 5892 5891 5891 5891 5891 5891 5891 5891 5891 5890 5889 5889 5888 5888 5887 5886 5886 5886 5885 5884 5884 5883 5881 5880 5879
5906 5904 5902 5901 5900 5900 5899 5898 5897 5896 5895 5895 5895 5894 5894 5893 5893 5893 5892 5892 5892 5892 5892 5891 5891 5891 5891 5890 5889 5888 5888 5887 5886 5885 5885 5884 5883 5883 5882 5881 5880 5879 5877
5906 5904 5903 5902 5901 5901 5900 5899 5898 5897 5896 5896 5895 5895 5894 5894 5894 5893 5893 5892 5892 5892 5892 5892 5891 5891 5890 5890 5889 5888 5887 5886 5885 5884 5884 5883 5882 5881 5880 5879 5878 5877 5875
5906 5905 5903 5902 5902 5901 5901 5900 5899 5898 5897 5896 5896 5895 5895 5895 5894 5894 5894 5893 5893 5892 5892 5892 5891 5891 5890 5889 5888 5887 5886 5885 5884 5883 5882 5881 5880 5879 5878 5877 5876 5874 5873
5905 5904 5903 5902 5902 5902 5901 5900 5899 5898 5897 5896 5895 5895 5895 5895 5895 5894 5894 5893 5893 5892 5892 5891 5891 5890 5889 5889 5888 5887 5885 5884 5883 5882 5881 5880 5878 5877 5876 5875 5873 5872 5870
5905 5904 5903 5902 5902 5901 5901 5901 5900 5899 5898 5897 5896 5895 5895 5895 5894 5894 5894 5893 5893 5892 5891 5891 5890 5889 5889 5887 5886 5885 5884 5883 5882 5881 5879 5878 5876 5875 5874 5872 5871 5870 5868
5903 5903 5902 5902 5901 5901 5901 5900 5900 5899 5898 5897 5896 5895 5894 5894 5894 5894 5894 5893 5892 5892 5891 5890 5889 5888 5887 5886 5885 5884 5883 5881 5880 5879 5877 5876 5874 5873 5871 5870 5868 5867 5865
5902 5902 5901 5901 5901 5900 5900 5899 5899 5898 5897 5896 5896 5895 5894 5893 5893 5893 5893 5892 5892 5891 5890 5889 5888 5887 5886 5885 5884 5882 5881 5880 5878 5877 5875 5873 5872 5870 5869 5867 5865 5863 5862
5900 5900 5899 5899 5899 5899 5899 5899 5898 5897 5896 5896 5895 5894 5893 5892 5893 5892 5892 5891 5891 5890 5889 5888 5887 5886 5885 5883 5882 5880 5879 5878 5876 5875 5873 5871 5869 5867 5866 5864 5862 5860 5859
5897 5897 5897 5897 5897 5898 5898 5897 5897 5896 5895 5894 5894 5893 5892 5891 5891 5890 5890 5890 5889 5888 5888 5887 5886 5884 5883 5882 5880 5879 5877 5875 5874 5872 5870 5868 5866 5864 5863 5861 5859 5857 5855
5894 5894 5894 5895 5895 5895 5895 5895 5895 5894 5893 5893 5892 5892 5891 5890 5889 5889 5888 5888 5887 5887 5886 5884 5883 5882 5880 5879 5878 5876 5875 5873 5871 5869 5867 5865 5863 5861 5859 5857 5855 5853 5852
5890 5891 5891 5891 5892 5892 5892 5892 5892 5891 5891 5891 5890 5890 5889 5888 5887 5886 5886 5885 5885 5884 5883 5882 5881 5879 5878 5876 5874 5873 5872 5870 5868 5866 5864 5862 5860 5858 5856 5854 5852 5850 5848
5886 5886 5887 5887 5888 5888 5888 5888 5888 5887 5887 5887 5887 5887 5886 5886 5885 5884 5883 5883 5882 5881 5880 5879 5878 5876 5874 5872 5871 5869 5868 5866 5865 5863 5861 5859 5856 5854 5852 5850 5847 5846 5844
5880 5881 5882 5883 5883 5883 5883 5883 5883 5884 5883 5883 5883 5883 5883 5882 5882 5881 5880 5879 5878 5877 5876 5875 5874 5872 5871 5869 5867 5865 5864 5862 5861 5859 5857 5855 5853 5850 5848 5845 5843 5841 5839
5875 5876 5876 5877 5878 5877 5878 5878 5878 5878 5878 5878 5879 5879 5878 5878 5877 5876 5875 5874 5873 5873 5872 5870 5869 5868 5866 5864 5862 5861 5859 5858 5856 5855 5853 5850 5848 5846 5843 5841 5839 5836 5834
5870 5870 5871 5871 5871 5872 5872 5872 5872 5872 5872 5873 5873 5873 5872 5872 5872 5872 5871 5870 5869 5868 5867 5866 5864 5863 5862 5860 5858 5857 5855 5853 5852 5850 5847 5845 5843 5841 5839 5836 5834 5831 5828
5863 5864 5864 5865 5865 5866 5866 5866 5866 5866 5866 5867 5867 5867 5866 5866 5866 5866 5865 5865 5864 5863 5861 5860 5859 5858 5857 5855 5853 5852 5850 5848 5846 5844 5842 5840 5838 5835 5833 5830 5828 5825 5823
5855 5857 5858 5858 5859 5859 5859 5860 5860 5860 5860 5860 5861 5860 5860 5860 5860 5860 5859 5859 5858 5856 5855 5854 5853 5852 5851 5849 5847 5846 5844 5842 5840 5838 5836 5834 5831 5829 5826 5824 5822 5819 5816
5848 5849 5850 5851 5852 5852 5853 5853 5853 5854 5853 5854 5854 5854 5854 5854 5853 5853 5853 5852 5851 5850 5849 5848 5847 5845 5844 5842 5840 5839 5837 5835 5833 5831 5829 5827 5824 5822 5820 5817 5815 5812 5809
5840 5841 5843 5844 5844 5845 5846 5846 5846 5846 5846 5847 5847 5847 5847 5846 5846 5846 5845 5844 5843 5843 5842 5841 5839 5838 5837 5835 5833 5831 5829 5827 5826 5823 5821 5819 5817 5814 5812 5810 5807 5804 5801
5832 5833 5834 5836 5836 5837 5838 5838 5838 5838 5839 5839 5839 5839 5839 5839 5839 5838 5837 5836 5836 5835 5834 5833 5831 5830 5829 5827 5825 5823 5822 5820 5818 5815 5813 5811 5809 5807 5804 5802 5799 5796 5793
5823 5825 5826 5827 5828 5829 5829 5830 5830 5831 5831 5831 5832 5832 5832 5832 5831 5830 5830 5829 5828 5827 5826 5825 5823 5822 5821 5820 5818 5815 5814 5812 5809 5807 5805 5803 5800 5798 5795 5793 5790 5788 5785
5814 5815 5817 5818 5819 5819 5820 5821 5822 5822 5823 5824 5824 5824 5824 5824 5824 5823 5823 5822 5821 5819 5818 5816 5815 5813 5812 5811 5809 5807 5805 5803 5801 5799 5796 5794 5792 5789 5786 5783 5781 5779 5776
Wind_Speed
11 10 10 11 11 10 9 9 10 9 9 9 8 8 8 7 7 7 7 6 6 5 5 4 4 3 2 2 1 1 1 2 2 3 4 4 5 5 6 7 8 8 9
9 9 9 10 10 10 9 8 9 9 9 8 8 7 7 6 6 5 5 5 4 4 3 3 3 3 3 2 2 2 2 3 4 4 4 5 5 6 6 8 8 8 9
8 8 8 8 9 9 9 8 8 8 8 8 7 7 7 6 5 5 5 4 4 4 3 3 3 3 2 2 3 3 3 3 4 5 5 5 6 6 7 7 8 9 9
6 7 6 7 7 8 8 8 7 7 7 7 7 7 7 6 5 5 5 4 4 4 4 3 3 2 2 3 4 4 4 4 5 5 5 6 6 6 7 8 8 9 9
5 6 5 5 5 6 6 7 7 6 6 6 6 6 6 6 5 5 5 5 4 4 3 3 2 2 3 4 4 5 5 5 5 5 6 6 7 7 7 8 9 9 10
4 4 4 4 4 4 5 6 6 6 6 5 5 5 5 5 4 5 5 5 4 4 3 3 3 3 3 4 5 5 6 6 7 7 7 7 8 8 9 10 10 11 11
4 4 3 3 3 3 4 4 5 5 5 4 4 5 5 5 4 4 4 4 3 3 3 3 3 4 4 5 6 6 7 7 8 8 8 8 9 10 10 11 12 12 12
5 3 3 2 2 2 3 4 4 4 4 4 4 4 4 4 4 4 3 4 3 3 3 4 4 4 5 6 7 8 8 8 9 9 9 10 10 11 12 13 13 13 13
5 4 4 3 2 2 2 3 3 3 3 3 3 3 3 3 3 3 4 4 3 4 4 5 5 6 6 7 7 8 8 8 9 10 10 10 10 11 12 12 12 13 13
6 6 5 4 3 2 2 3 3 2 2 2 2 2 2 2 2 3 4 4 4 5 5 6 7 7 7 8 9 9 8 8 9 10 10 11 11 11 12 12 13 13 14
9 8 7 7 5 4 3 3 4 3 2 2 3 3 3 3 2 2 4 5 5 6 6 6 7 8 8 8 9 9 10 10 10 11 11 11 12 12 12 13 13 14 14
11 10 9 8 8 6 6 5 5 5 4 4 4 4 4 3 4 4 4 5 6 6 7 7 8 9 9 9 10 10 10 11 11 12 12 12 13 13 13 14 14 15 14
11 11 10 10 9 9 8 8 7 7 6 6 6 6 6 5 6 5 5 6 7 7 7 8 9 10 10 11 11 11 11 11 11 12 12 13 13 13 14 15 15 15 15
13 13 11 11 11 11 11 10 10 9 9 8 8 9 8 7 7 7 7 7 7 8 9 9 10 10 11 12 12 12 12 12 13 13 14 14 14 14 15 15 16 16 16
15 14 14 13 13 13 13 13 12 12 11 11 11 10 10 9 9 9 9 9 9 10 10 11 11 12 13 13 13 13 14 14 15 15 15 15 15 16 16 17 17 17 17
17 16 15 16 16 15 15 15 15 15 14 14 13 13 13 12 12 12 11 11 12 12 13 13 14 14 14 15 15 16 15 16 16 16 16 17 18 18 18 19 18 18 19
19 17 17 17 17 18 18 17 17 18 18 17 16 16 16 15 15 15 14 14 15 15 15 16 16 16 16 16 16 17 17 17 17 17 18 19 19 20 20 20 20 20 20
21 20 19 19 19 20 20 21 21 21 21 20 19 19 19 19 18 17 17 17 17 17 17 17 17 17 17 18 18 18 18 18 19 19 19 20 20 20 21 21 21 21 21
22 21 21 20 20 21 21 22 22 23 23 22 21 21 21 20 20 19 19 19 19 19 19 20 20 20 20 20 20 20 20 20 20 21 21 22 22 23 23 23 23 23 23
24 23 23 23 23 22 23 24 24 24 24 23 23 24 24 23 22 21 21 21 21 21 21 21 22 22 22 23 23 22 22 22 23 23 23 24 24 25 25 24 24 24 25
24 25 25 25 25 25 25 25 25 25 26 25 25 25 24 24 23 22 23 24 24 24 23 23 23 23 23 24 24 24 24 24 25 25 25 25 25 26 26 26 25 26 26
26 26 26 26 26 27 27 27 27 27 27 26 26 25 25 25 25 25 25 26 26 25 25 25 25 25 25 25 25 26 26 26 26 26 26 26 26 27 27 28 28 28 28
28 28 28 28 28 28 28 28 27 27 28 27 27 26 26 26 26 27 27 27 26 26 27 27 27 26 26 26 26 26 26 26 26 26 27 27 28 28 29 29 29 29 30
30 29 29 29 29 29 29 29 28 28 28 28 28 27 27 27 27 27 27 26 27 27 28 28 28 27 27 27 27 27 27 27 28 28 28 29 29 30 30 30 30 30 30
31 31 31 31 31 31 30 30 29 29 29 29 28 28 28 28 28 27 28 28 28 28 28 28 28 29 28 28 28 28 28 29 29 29 29 30 30 31 31 31 31 31 31
33 33 33 33 33 32 30 30 30 29 29 29 29 29 29 30 30 29 28 28 29 28 29 28 29 29 29 29 29 29 29 29 30 30 30 30 31 31 32 31 31 31 31
Wind_Direction
47 50 56 58 60 60 64 68 72 74 74 75 74 72 71 73 75 83 86 89 87 87 88 90 84 84 87 70 34 13 357 346 320 307 300 297 297 294 298 300 297 292 285
44 48 53 58 58 58 62 68 70 73 75 74 71 70 71 71 71 76 77 80 80 80 79 80 70 63 67 48 19 352 340 333 322 313 305 300 297 298 298 297 295 292 287
39 43 47 55 57 57 60 64 65 68 70 69 68 69 68 68 69 69 67 73 78 75 69 73 67 61 46 22 2 345 335 330 326 322 315 307 300 302 302 308 310 306 300
30 37 43 50 55 55 56 57 59 62 65 68 67 64 62 62 62 60 60 64 69 67 63 61 54 38 15 359 354 349 336 324 320 319 317 313 309 308 307 312 314 315 313
17 29 35 42 51 52 57 54 51 52 57 62 60 59 57 59 58 56 54 56 58 57 55 48 31 6 351 343 343 339 335 329 322 316 313 310 309 308 307 309 311 311 310
350 10 19 26 41 50 51 47 44 44 46 55 57 59 53 51 54 54 50 50 48 43 40 27 11 354 342 334 328 324 325 324 321 314 311 310 310 309 306 305 306 306 306
321 347 4 18 35 40 35 39 38 38 39 40 45 49 50 51 49 51 49 47 39 29 20 2 350 344 341 335 327 322 321 320 319 317 316 316 315 312 310 309 308 307 306
300 323 347 353 9 18 14 25 29 31 31 30 31 35 45 48 43 39 36 31 24 13 354 345 332 329 330 326 323 322 321 319 319 316 313 312 313 312 309 307 306 307 309
288 308 327 318 322 339 1 13 15 18 16 18 19 20 28 33 27 21 18 13 4 356 350 339 330 327 325 323 320 318 316 314 313 314 313 311 311 313 313 311 311 312 311
279 293 308 302 285 298 315 336 340 347 1 6 7 360 349 359 356 359 3 2 0 354 349 345 336 332 331 327 322 321 319 318 317 317 315 312 310 311 312 312 311 311 311
273 280 290 291 285 281 286 300 308 313 321 332 330 323 314 322 328 333 340 341 339 340 340 340 336 330 326 328 326 321 316 313 313 312 311 310 309 309 311 313 312 311 311
267 267 275 285 277 277 283 287 288 295 300 306 311 312 313 314 312 310 312 319 323 325 329 330 328 324 321 322 322 318 315 311 311 311 311 310 309 311 312 314 313 311 310
263 262 266 275 271 272 278 285 288 288 288 294 299 302 308 306 306 303 300 304 312 320 321 318 319 319 317 316 318 318 315 313 312 312 312 311 310 310 309 309 310 309 309
262 263 263 270 268 273 274 278 283 282 282 284 289 298 299 299 298 299 298 302 306 311 314 312 309 310 311 311 310 310 312 312 311 309 309 309 308 309 309 308 308 307 306
262 265 263 268 269 270 272 272 274 276 278 280 283 288 292 292 291 294 295 296 299 304 306 307 307 307 307 307 305 303 305 308 310 308 308 309 308 308 307 307 306 305 305
260 262 260 261 264 266 267 267 272 275 274 274 276 280 283 285 287 287 289 291 293 296 298 300 300 301 304 305 304 303 303 303 304 305 306 307 308 306 306 304 303 303 304
260 260 260 261 264 264 263 268 271 273 272 270 272 275 275 276 278 280 282 285 287 288 291 293 296 299 302 303 304 304 302 300 301 303 304 306 307 307 305 304 303 303 302
259 259 260 262 265 265 262 265 268 272 273 271 273 276 274 273 273 277 281 283 285 286 290 292 293 294 296 298 298 300 297 298 298 299 299 301 303 303 303 303 303 303 303
256 258 260 264 265 265 264 265 267 271 273 273 272 272 273 275 275 276 279 282 285 288 292 293 294 295 297 299 296 295 295 296 297 297 296 297 300 302 302 302 302 303 303
256 256 259 262 264 265 267 268 268 269 271 271 271 271 273 275 277 276 277 279 282 285 288 290 291 292 294 296 297 298 297 295 295 296 296 296 297 298 301 302 301 302 302
258 258 259 261 262 263 266 269 267 268 269 271 275 273 274 275 276 279 281 280 281 283 285 287 289 289 291 293 294 295 296 296 295 294 294 295 296 297 299 300 300 300 300
256 258 260 262 263 264 265 267 267 268 270 272 275 276 276 276 278 278 280 281 282 283 285 288 288 288 290 291 291 292 294 295 295 295 294 293 295 296 297 297 297 297 297
253 256 259 261 264 265 266 267 268 268 268 271 274 275 274 275 277 278 279 279 280 282 284 286 286 287 289 290 290 291 293 292 293 294 293 292 293 293 294 295 295 296 296
254 256 257 260 263 264 265 267 268 269 271 272 273 274 274 275 276 276 277 278 279 283 284 286 285 286 287 288 290 291 292 293 292 292 292 291 292 293 293 295 295 295 296
254 255 257 260 262 263 265 266 266 268 270 273 274 272 273 275 277 277 278 280 281 283 285 285 285 284 285 286 287 289 291 292 293 294 294 292 291 291 292 293 294 295 296
253 256 259 261 262 262 264 265 267 267 268 270 272 272 273 275 277 279 278 279 282 283 286 286 287 286 284 285 287 288 290 292 292 293 293 293 294 294 293 292 293 294 295